Location: G�migny
(47.9646°N, 1.6950°E)
Time: 18:41:58
(UTC+00:00)

STARLINK-30 - Pass Details

Date: 23 October 2019
Orbit: 549 x 551 km, 53.0° (Epoch: 21 November)

Event Time Altitude Azimuth Distance (km) Brightness Sun altitude
Rises 18:14:42 0° 289° (WNW) 2,721 8.6 -14.7°
Reaches altitude 10° 18:17:01 10° 296° (WNW) 1,827 7.3 -15.1°
Maximum altitude 18:21:01 44° 10° (N) 763 4.2 -15.8°
Enters shadow 18:22:43 28° 64° (ENE) 1,043 4.5 -16.0°
